www.pogodaiklimat.ru

Погода и климат >> Архив погоды >> Мозамбик >> Quelimane


ПОГОДА в Quelimane

  • Прогноз погоды в Quelimane
  • Монитор погоды в Quelimane
  • Климат города

АРХИВ ПОГОДЫ в Quelimane

Время (UTC), дата Ветер
(напр.,м/с)
 
Видим.   Явления Облачность Т
(С)
Тd
(С)
f
(%)
Тe
(С)
Тes
(С)
Комфортность P
(гПа)
Po
(гПа)
Тmin
(С)
Tmax
(С)
R
(мм)
R24
(мм)
S
(см)
21 19.06 З 1 30 км ясно +17.8 +15.1 84 +19 +19 1021.2 1021.0
00 20.06 З 1 30 км ясно +16.2 +14.5 90 +17 +17 1019.9 1020.0
03 20.06 СЗ 3 25 км в посл. час морось 9/6 600 м
[Cu med, cong Ac trans]
+16.2 +14.8 91 +16 +16 1019.8 1020.0
06 20.06 З 4 30 км {морось} 9/6 600 м
[Cu med, cong Ac trans]
+18.2 +16.2 88 +18 +19 1021.6 1022.0 +15.2 1
09 20.06 ЮЗ 4 30 км 8/6 600 м
[Cu med, cong Ac trans]
+24.4 +18.8 71 +29 +32 душно 1020.7 1021.0
12 20.06 Ю 3 30 км 9/6 600 м
[Cu med, cong Ac trans]
+24.6 +16.1 59 +28 +29 душно 1018.7 1019.0
15 20.06 Ю 3 20 км в посл. час морось 9/8 300 м
[Cu med, cong Ac trans]
+21.8 +19.0 84 +27 +27 душно 1019.5 1020.0
18 20.06 З 2 30 км {морось} 9/8 600 м
[Cu med, cong Ac trans]
+21.4 +17.2 77 +25 +25 комфорт 1020.5 1021.0 0.7
21 20.06 С 1 30 км 8/6 600 м
[Cu med, cong Ac trans]
+18.8 +16.8 88 +21 +21 комфорт 1020.1 1020.0
00 21.06 штиль 0 30 км 8/6 600 м
[Cu med, cong Ac trans]
+18.6 +17.6 94 +20 +20 1020.6 1021.0
03 21.06 С 2 30 км 8/8 600 м
[Cu med, cong Ac trans]
+18.0 +17.0 94 +19 +19 1020.1 1020.0
06 21.06 СВ 2 30 км в посл. час морось 9/6 600 м
[Cu med, cong Ac trans]
+19.2 +18.2 94 +22 +22 комфорт 1020.9 1021.0 +17.0 1
09 21.06 СЗ 3 30 км 9/1 600 м
[Cu hum Ac trans]
+23.0 +18.2 74 +29 +33 очень
душно
1020.7 1021.0
12 21.06 Ю 1 30 км 9/6 600 м
[Cu med, cong Ac trans]
+25.4 +18.5 66 +30 +32 душно 1017.9 1018.0
15 21.06 С 2 30 км {дождь} 9/8 600 м
[Cu med, cong Ac trans]
+20.0 +18.4 91 +24 +24 комфорт 1019.2 1019.0
18 21.06 СЗ 2 30 км {дождь, морось} 9/8 300 м
[Cu med, cong Ac trans]
+19.2 +18.6 96 +22 +22 комфорт 1020.0 1020.0 +28.0 11
21 21.06 З 3 30 км 8/6 600 м
[Cu med, cong Ac trans]
+19.2 +18.2 94 +22 +22 комфорт 1019.9 1020.0
00 22.06 З 2 30 км 6/4 600 м
[Cu med, cong Ac trans]
+18.4 +17.4 94 +20 +20 1018.9 1019.0
03 22.06 З 1 30 км 6/4 600 м
[Cu med, cong Ac trans]
+18.3 +17.1 93 +20 +20 1018.9 1019.0
06 22.06 СЗ 2 30 км 8/4 600 м
[Cu med, cong Ac trans]
+19.3 +18.2 93 +22 +23 комфорт 1020.4 1020.0 +18.0 11
09 22.06 З 3 30 км 6/3 600 м
[Cu med, cong Ac trans]
+24.6 +19.7 74 +30 +36 очень
душно
1020.7 1021.0
12 22.06 Ю 2 30 км 5/5 600 м
[Cu med, cong Ac trans]
+25.0 +18.4 67 +30 +33 душно 1017.9 1018.0
15 22.06 Ю 2 30 км 5/5 600 м
[Cu med, cong Ac trans]
+24.2 +17.8 67 +28 +28 душно 1018.4 1018.0
18 22.06 Ю 2 30 км 1/1 600 м
[Cu hum]
+21.8 +19.3 86 +27 +27 душно 1019.6 1020.0 +26.5
21 22.06 З 1 30 км ясно +20.4 +18.5 89 +25 +25 комфорт 1019.8 1020.0
00 23.06 штиль 0 30 км ясно +18.0 +16.7 92 +18 +18 1018.8 1019.0
03 23.06 СЗ 1 30 км ясно +16.8 +16.1 96 +18 +18 1019.0 1019.0
06 23.06 СЗ 2 30 км 9/1 600 м
[Cu hum Ac lent]
+19.0 +18.0 94 +21 +22 комфорт 1021.2 1021.0 +16.7
12 23.06 ЮЗ 2 30 км 3/3 600 м
[Cu med, cong Ac trans]
+27.8 +17.0 52 +32 +37 душно 1019.0 1019.0
15 23.06 ЮВ 3 30 км 3/1 600 м
[Cu med, cong Ac trans]
+25.0 +18.4 67 +30 +30 душно 1019.5 1020.0
18 23.06 ЮВ 2 30 км 1/1 600 м
[Cu med, cong]
+22.2 +19.1 83 +28 +28 душно 1020.4 1020.0
03 25.06 З 3 30 км в посл. час дождь 9/8 300 м
[Cu med, cong Ac trans]
+19.6 +19.0 96 +23 +23 комфорт 1019.5 1020.0
06 25.06 З 4 20 км в посл. час дождь {ливн. осадки} 10/9 300 м
[Cu med, cong Ac trans]
+19.8 +19.2 96 +23 +23 комфорт 1022.3 1022.0 +16.2 7
09 25.06 З 3 20 км в посл. час морось 9/8 300 м
[Cu med, cong Ac trans]
+22.4 +20.6 90 +29 +30 очень
душно
1021.9 1022.0
12 25.06 Ю 5 30 км {морось} 6/6 600 м
[Cu med, cong Ac trans]
+26.4 +19.0 64 +32 +33 очень
душно
1019.8 1020.0 0.5
15 25.06 Ю 4 30 км 6/3 600 м
[Cu med, cong Ac trans]
+25.0 +18.8 68 +30 +30 душно 1020.2 1020.0
18 25.06 Ю 2 30 км 3/1 600 м
[Cu hum Ac trans]
+23.6 +17.9 70 +28 +28 душно 1021.5 1022.0 +26.5 0.5
21 25.06 Ю 2 30 км 1/1 600 м
[Cu med, cong Ac trans]
+22.6 +18.5 78 +28 +28 душно 1021.7 1022.0
00 26.06 З 2 30 км 1/1 600 м
[Cu med, cong]
+21.6 +19.4 87 +27 +27 душно 1021.3 1021.0
03 26.06 З 1 30 км 4/3 600 м
[Cu med, cong Ac trans]
+20.0 +18.4 91 +24 +24 комфорт 1021.8 1022.0
06 26.06 З 2 30 км 1/1 600 м
[Cu med, cong Ac trans]
+20.2 +17.9 87 +24 +27 комфорт 1023.3 1023.0 0.5
09 26.06 Ю 5 30 км 1/1 600 м
[Cu hum Ac trans]
+26.4 +16.8 56 +30 +37 душно 1023.3 1023.0
12 26.06 Ю 4 30 км 6/4 600 м
[Cu med, cong Ac trans]
+27.0 +15.6 50 +30 +32 душно 1021.3 1021.0
15 26.06 ЮЗ 4 30 км 6/4 600 м
[Cu med, cong Ac trans]
+25.0 +17.1 62 +29 +29 душно 1021.6 1022.0

 

Местоположение метеостанции Quelimane (Мозамбик): широта -17.88 долгота 36.88 высота над уровнем моря 16 м.

В архиве по умолчанию представлена погода в Quelimane за последнюю неделю. Архивные данные за месяц целиком и за предыдущие месяцы, начиная с января 2011 года, Вы можете получить, выбрав интересующий диапазон дат из раскрывающегося списка и нажав кнопку "Ввод!".

Внимание! Время в таблицах - всемирное. Для получения местного времени необходимо прибавить поправку, которая в Quelimane равна 2 ч.

Смотрите также архив погоды в соседних городах и на ближайших метеорологических станциях:

Погода в Pebane (Мозамбик) (151 км)
Погода в Caia (Мозамбик) (164 км)
Погода в Beira (Мозамбик) (298 км)
Погода в Chichiri (Малави) (306 км)
Погода в Chileka (Малави) (318 км)
Погода в Cuamba (Мозамбик) (341 км)
Погода в Angoche (Мозамбик) (370 км)
Погода в Chimoio (Мозамбик) (385 км)
Погода в Catandica (Мозамбик) (393 км)
Погода в Tete Chingodze (Мозамбик) (396 км)

Пояснения к столбцам:

Ветер - указаны скорость ветра в м/с - средняя за 10 мин, порывы в срок и между сроками (в фигурных скобках) и направление, откуда дует ветер: С - северный, СВ - северо-восточный, В - восточный, ЮВ - юго-восточный, Ю - южный, ЮЗ - юго-западный, З - западный, СЗ - северо-западный.
Видимость - горизонтальная дальность видимости в метрах или километрах. При видимости от 1 до 10 км при отсутствии осадков обычно наблюдается дымка, при ухудшении видимости до 1 км и менее - туман. В сухую погоду видимость может ухудшаться дымом, пылью или мглою.
Явления - указаны атмосферные явления, наблюдавшиеся в срок или в последний час перед сроком; фигурными скобками обозначены явления, наблюдавшиеся между сроками (за 1-3 часа до срока); квадратными скобками обозначены град или гололедные отложения с указанием их диаметра в мм.
Облачность - указаны через наклонную черту общая и нижняя облачность в баллах и высота нижней границы облаков в метрах; квадратными скобками обозначены формы облаков: Ci - перистые, Cs - перисто-слоистые, Cc - перисто-кучевые, Ac - высококучевые, As - высокослоистые, Sc - слоисто-кучевые, Ns - слоисто-дождевые, Cu - кучевые, Cb - кучево-дождевые. Подробнее классификацию облаков см. в Атласе облаков (PDF).
T - Температура воздуха - температура, измеренная на высоте 2 м над землей.
Td - Температура точки росы - температура, при понижении до которой содержащийся в воздухе водяной пар достигнет насыщения.
f - Относительная влажность воздуха - влажноcть воздуха, измеренная на высоте 2 м над землей.
Te - Эффективная температура - температура, которую ощущает одетый по сезону человек в тени. Характеристика душности погоды. При расчете учитывается влияние влажности воздуха и скорости ветра на теплоощущения человека.
Tes - Эффективная температура на солнце - температура, которую ощущает человек, с поправкой на солнечный нагрев. Характеристика знойности погоды. Зависит от высоты солнца над горизонтом, облачности и скорости ветра. Ночью, в пасмурную погоду, а также при ветре 12 м/с и более поправка равна нулю.
P - Атмосферное давление - приведенное к уровню моря атмосферное давление.
Po - Атмосферное давление - измеренное на уровне метеостанции атмосферное давление.
Tmin - Минимальная температура - минимум температуры воздуха на высоте 2 м над землей.
Tmax - Максимальная температура - максимум температуры воздуха на высоте 2 м над землей.
R - Количество осадков - Количество выпавших осадков за период времени, мм. При наведении курсора мыши на число - период времени, за который выпало указанное количество осадков.
R24 - Количество осадков - Количество выпавших осадков за 24 часа, мм.
S - Снежный покров - Высота снежного покрова, см. При наведении курсора мыши на число - состояние снежного покрова и степень покрытия местности в баллах.